Location: Antist
(43.1184°N, 0.1270°E)
Time: 12:12:00
(UTC+00:00)

Cosmos 1461 - Pass Details

Date: 19 January 2020
Orbit: 516 x 651 km, 65.0° (Epoch: 16 February)

Event Time Altitude Azimuth Distance (km) Brightness Sun altitude
Rises 18:15:44 0° 321° (NW) 2,811 6.8 -14.7°
Reaches altitude 10° 18:17:59 10° 317° (NW) 1,930 6.0 -15.1°
Maximum altitude 18:22:13 51° 241° (WSW) 770 3.9 -15.9°
Drops below altitude 10° 18:26:35 10° 166° (SSE) 1,994 5.6 -16.6°
Sets 18:28:56 0° 161° (SSE) 2,914 6.4 -17.1°
